Location: Newark
(45.2500°N, 7.5833°E)
Time: 19:03:32
(UTC+00:00)

Vanguard 3 - Pass Details

Date: 31 January 2020
Orbit: 508 x 3263 km, 33.3° (Epoch: 17 February)

Event Time Altitude Azimuth Distance (km) Brightness Sun altitude
Rises 19:26:14 0° 272° (W) 7,161 13.2 -30.3°
Reaches altitude 10° 19:31:16 10° 267° (W) 6,202 12.5 -31.2°
Maximum altitude 19:49:18 46° 204° (SSW) 3,585 10.3 -34.3°
Enters shadow 19:56:13 32° 158° (SSE) 3,746 10.1 -35.5°
Drops below altitude 10° 20:02:45 10° 137° (SE) 4,708 - -36.6°
Sets 20:06:00 0° 131° (SE) 5,380 - -37.2°
